Weather in Vitino

Russia / Republic of Crimea     45°12′30″N   33°09′11″E
temp.,
°C
wind,
m/s
gust,
m/s
humid.,
%
clouds,
%
prec.,
mm/h
press.,
hPa
HPBL,
m
3 march, wed
wed300:00+5wsw8118049 0.0 1024506
03:00+6wnw7118155 0.0 1023528
06:00+2n6118236 0.0 1023500
09:00+5n796958 0.0 10261043
12:00+7nnw68590 0.0 10271035
15:00+8nnw67550 0.0 10271102
18:00+7nw56580 0.0 1027742
21:00+5nw357227 0.0 1029178
4 march, thu
thu400:00+4wnw347414 0.0 1028119
03:00+4wnw23777 0.0 1028176
06:00+4wsw34750 0.0 1026276
09:00+6sw56680 0.0 1025789
12:00+8sw77640 0.0 1023859
15:00+8sw89670 0.0 1021771
18:00+7ssw810740 0.0 1019713
21:00+6ssw912750 0.0 1019602
5 march, fri
fri500:00+6ssw913800 0.0 1018577
03:00+7ssw912820 0.0 1017558
06:00+7ssw811830 0.0 1015458
09:00+8ssw912790 0.0 1015560
12:00+10ssw1013749 0.0 1014628
15:00+10ssw10137513 0.0 1012566
18:00+9ssw913824 0.0 1011533
21:00+8ssw7119014 0.0 1012382
6 march, sat
sat600:00+8ssw699276 0.0 1012251
03:00+8sw338769 0.0 101340
06:00+5nne8129258 0.0 1015320
09:00+5nne798379 0.0 1017486
12:00+2n91194100 0.2 1018434
15:00+4nne71065100 1.1 1019872
18:00+4nne6946100 0.0 10211271
21:00+3n51053100 0.0 1025689
7 march, sun
sun700:00+1nne595134 0.0 1027391
03:00−1nne345117 0.0 1028189
06:00−1ese11490 0.0 1028106
09:00+2s23430 0.0 1028468
12:00+5wsw46395 0.0 10281810
15:00+5w674251 0.0 10261822
18:00+4w56466 0.0 10241091
21:00+3wsw57516 0.0 1023481